Location: London
(51.5074°N, 0.1278°W)
Time: 05:08:17
(UTC+01:00)

ISS - Pass Details

Date: 29 March 2018
Orbit: 402 x 408 km, 51.6° (Epoch: 19 July)

Event Time Altitude Azimuth Distance (km) Brightness Sun altitude
Rises 20:09:40 0° 238° (WSW) 2,346 0.7 -7.1°
Reaches altitude 10° 20:11:47 10° 233° (SW) 1,488 -0.4 -7.4°
Maximum altitude 20:15:02 49° 157° (SSE) 548 -3.4 -7.9°
Drops below altitude 10° 20:18:17 10° 82° (E) 1,497 -1.5 -8.4°
Enters shadow 20:18:22 10° 81° (E) 1,530 -1.5 -8.4°
